RH
42 41 41 42 44 48 51 52 53 55 56 62 69 74 76 72 67 62 59 62 68 76 80 83 85 87 87 88 88 88 88 87 87 86 85 84 83 81 79 78 77 76 76 74 73 72 72 73 74 74 74 74 74 75 76 77 78 78 79 80 82 83 83 81 80 79 78 77 76 76 75 74 73 73 72 72 71 70 72 76 79 81 82 81 80 79
46 46 45 43 43 44 46 48 49 51 52 55 60 66 70 68 64 59 54 57 63 69 74 76 78 80 83 85 86 87 87 87 87 87 87 86 85 84 82 79 78 77 76 75 73 72 71 72 73 74 74 74 74 75 76 77 78 79 80 81 82 83 82 81 80 79 79 79 78 77 76 75 74 74 73 73 72 72 74 77 79 81 81 80 79 77
46 47 47 45 42 41 40 41 43 45 46 49 52 57 62 61 58 54 51 52 57 63 69 69 69 69 70 74 77 81 85 86 87 87 87 87 86 85 84 82 80 78 77 76 74 73 72 73 74 74 75 75 75 76 77 77 78 79 81 82 83 83 82 81 80 79 80 80 80 79 78 77 77 76 75 74 74 74 75 77 78 79 80 79 78 75
42 42 43 43 41 38 34 33 34 35 38 41 44 48 51 51 50 48 47 48 51 56 62 65 66 66 65 63 64 67 73 79 84 86 87 87 87 86 85 84 82 80 78 77 76 75 74 75 75 76 76 76 76 76 78 78 79 80 82 83 83 83 82 80 80 80 79 79 80 80 80 81 81 80 78 77 77 78 78 78 78 78 78 78 77 74
36 36 36 37 37 35 31 27 26 26 28 33 36 40 42 43 43 43 43 44 46 49 53 57 60 62 63 62 60 58 59 65 73 81 86 87 87 86 86 85 84 82 81 79 78 77 77 77 77 77 77 77 77 78 79 79 80 81 83 84 84 83 82 81 80 80 79 78 78 79 81 83 84 84 83 83 83 82 81 79 78 78 77 77 75 71
32 32 32 33 32 31 28 24 21 19 21 26 30 35 37 37 38 38 38 39 40 42 45 48 51 53 54 55 55 54 53 55 60 68 78 83 86 86 86 85 84 84 83 81 80 80 79 79 79 79 79 79 79 80 80 80 81 82 84 85 84 83 82 81 81 80 78 77 77 78 80 84 85 85 85 85 85 84 83 80 79 77 76 75 73 70
32 31 30 30 30 28 25 22 19 17 18 21 27 32 35 35 35 34 34 35 36 38 40 41 43 43 44 45 46 47 48 50 53 59 67 76 82 85 86 85 84 84 83 83 82 81 81 81 81 80 80 80 80 81 81 81 81 83 85 85 85 84 83 82 81 80 79 78 76 76 78 82 85 86 85 85 85 84 82 80 78 77 75 74 73 71
33 31 29 30 30 29 27 24 21 20 20 22 26 31 35 35 34 33 32 33 33 34 35 36 37 37 37 37 38 40 43 46 50 54 60 68 76 82 85 85 84 84 83 83 83 82 82 82 81 81 81 81 81 81 81 80 81 82 84 85 85 84 83 82 81 80 79 78 76 75 75 79 83 85 85 85 84 83 82 80 78 76 74 73 73 74
31 30 29 30 34 37 38 35 33 31 32 31 31 32 34 35 34 34 33 31 31 31 32 33 33 33 33 34 35 37 40 44 48 52 57 64 72 79 84 85 85 84 84 83 83 83 82 82 81 81 81 82 82 81 81 80 80 81 83 85 85 85 84 83 82 80 79 78 76 75 75 77 81 83 84 84 84 83 82 80 77 75 73 73 74 75
34 34 35 38 44 50 55 53 50 49 50 45 40 35 33 34 35 35 36 33 31 30 32 31 31 30 30 32 34 36 40 43 47 51 56 62 69 76 83 85 85 85 84 84 83 83 82 82 82 82 82 82 82 82 81 80 80 81 82 84 84 84 84 83 82 81 79 78 76 75 75 78 80 82 82 82 82 82 81 79 77 75 73 73 74 75
49 50 54 59 63 67 70 68 65 61 60 54 46 38 32 31 33 35 38 36 33 31 31 31 30 29 29 30 33 37 42 46 50 54 58 63 69 76 82 85 86 85 85 84 84 83 83 82 82 82 82 82 82 82 81 81 81 81 82 83 84 84 83 83 82 81 80 78 77 76 76 79 81 82 82 81 81 80 80 79 77 75 74 73 73 73
70 71 74 76 77 77 77 75 69 64 58 54 48 42 35 31 30 32 35 35 34 32 32 31 30 30 31 32 35 40 45 50 55 59 63 67 72 76 81 84 85 85 85 84 84 83 83 82 82 82 82 82 82 82 82 81 81 82 82 82 83 83 83 83 82 81 80 79 78 77 78 81 83 84 83 82 81 80 79 78 77 76 75 73 71 70
81 81 80 80 79 78 76 72 65 58 52 48 45 42 37 33 29 28 28 28 30 31 32 33 33 33 34 37 41 46 52 57 62 66 70 73 76 78 81 84 85 85 85 85 84 83 83 83 82 82 82 82 82 82 82 82 82 82 82 82 82 82 82 82 82 82 81 79 79 79 80 83 85 85 84 83 82 81 80 79 77 76 74 70 67 64
82 81 81 80 78 74 67 59 53 48 43 41 40 39 38 35 30 26 23 24 26 29 34 36 37 38 40 44 49 55 61 67 71 74 76 77 78 80 82 84 85 85 85 85 84 84 83 83 83 83 83 83 82 82 82 82 82 81 81 81 81 81 81 82 82 82 81 80 80 81 82 84 85 85 84 83 82 81 80 78 77 74 70 65 60 57
80 79 79 76 71 62 53 48 46 45 44 43 42 42 42 40 35 28 25 26 28 31 36 40 42 45 48 53 59 65 72 76 79 80 80 79 80 81 83 85 85 85 85 84 84 84 84 84 83 83 83 82 82 82 82 81 81 81 81 80 80 80 80 81 82 83 82 82 82 83 84 85 85 84 84 83 81 80 79 77 74 70 64 57 53 50
70 68 65 60 54 51 52 56 60 62 61 58 54 51 50 46 40 34 30 30 32 35 39 43 47 51 55 60 67 73 79 82 83 83 81 81 80 81 83 84 85 84 84 84 84 84 84 84 83 83 82 82 82 81 81 81 81 80 80 80 79 80 80 82 83 83 83 83 83 84 85 85 84 84 83 82 80 78 76 73 68 63 56 51 48 46
58 57 54 54 58 63 70 75 77 78 76 73 68 63 57 51 45 40 37 37 38 39 41 45 49 54 58 63 70 77 82 84 85 84 83 81 80 80 81 83 83 83 83 83 83 83 84 83 83 83 82 82 81 81 81 80 80 80 80 79 80 80 81 82 83 84 84 84 84 84 85 84 84 83 82 80 78 76 73 68 62 56 50 47 44 43
62 65 70 76 80 82 82 82 80 79 79 78 77 74 68 59 50 45 45 45 47 48 48 49 52 55 60 67 73 78 83 85 86 86 85 83 81 79 80 81 81 82 82 82 82 82 83 83 83 82 82 82 81 81 80 80 80 80 80 80 80 81 82 83 84 84 84 84 84 84 84 84 83 82 80 78 76 72 67 61 56 50 46 43 42 42
69 75 80 82 83 84 84 84 84 83 82 82 80 79 77 70 61 54 54 55 58 60 61 61 60 60 61 67 74 79 84 86 86 85 86 85 83 80 79 80 80 80 80 80 80 80 81 81 82 82 82 81 81 81 80 80 80 80 80 81 81 82 83 84 84 85 85 84 84 84 84 83 82 80 79 76 72 68 62 57 51 46 43 41 40 40
70 73 79 83 84 84 84 85 85 85 85 85 84 83 82 80 74 69 67 68 70 72 73 73 71 69 68 71 76 81 85 86 86 86 86 86 85 83 81 81 81 80 80 79 79 79 79 80 80 80 80 80 80 80 80 80 80 80 81 81 82 83 83 84 85 85 85 84 84 84 83 82 81 79 77 74 69 64 59 53 49 44 41 39 38 38
75 73 72 77 81 83 83 84 84 84 85 85 85 85 85 84 83 81 80 80 81 82 81 80 78 76 75 79 82 85 85 85 85 85 86 86 86 85 84 84 84 84 83 82 82 81 81 81 80 79 78 78 78 78 79 79 79 80 80 81 82 83 84 85 85 85 85 84 84 83 82 81 80 78 76 72 68 62 57 52 47 43 39 37 36 35
83 81 79 78 80 82 82 81 81 82 83 83 84 85 85 85 85 85 85 85 85 85 84 83 81 79 81 84 85 85 85 85 85 85 85 85 85 85 85 85 85 85 85 85 85 85 84 83 82 80 79 77 77 77 78 78 79 79 80 81 82 83 84 85 85 85 84 84 83 83 82 81 79 78 75 71 67 61 56 51 46 41 37 35 33 32
84 84 83 84 84 84 83 82 81 81 80 80 81 81 81 82 84 85 85 85 85 85 84 83 82 81 82 84 85 85 84 85 85 85 84 85 85 85 85 85 85 85 85 85 85 85 85 85 84 83 81 80 79 79 79 78 78 78 79 80 81 82 84 85 85 85 84 84 83 82 81 80 79 77 75 71 66 61 55 50 44 40 35 33 31 30
84 83 83 83 83 84 83 83 83 83 82 81 80 78 77 78 81 84 85 85 85 85 84 84 83 83 83 84 84 84 84 84 84 84 84 85 85 84 84 85 85 84 84 85 85 85 85 85 85 85 84 83 82 81 80 79 78 78 79 79 81 82 84 85 85 84 84 83 83 82 81 80 78 77 74 71 66 61 56 49 44 39 34 31 29 28
74 78 80 81 82 83 83 83 83 83 84 83 83 83 81 81 82 84 85 84 84 84 84 84 84 84 84 84 85 85 84 84 83 83 84 84 84 84 83 84 84 84 84 84 85 85 84 85 85 85 85 85 84 83 82 80 80 79 79 80 81 82 84 85 85 84 84 83 83 82 81 80 78 77 74 71 67 62 56 50 44 39 34 31 29 28
51 58 64 69 73 77 80 81 82 82 83 82 83 84 84 84 84 83 83 83 83 83 84 84 85 85 84 85 85 85 84 84 84 84 84 84 84 84 84 84 84 84 84 84 84 84 84 84 84 85 85 85 85 85 84 83 82 81 81 81 82 83 84 85 85 84 84 83 83 82 81 80 79 77 74 71 67 62 56 50 44 39 35 32 30 30
28 34 40 46 53 59 65 70 74 77 80 81 82 83 84 84 83 83 82 82 82 83 84 84 84 84 84 84 84 84 84 84 84 84 84 84 84 84 84 84 84 84 84 84 84 84 84 84 84 84 84 85 85 85 85 85 84 84 83 83 83 84 85 85 85 84 84 83 83 82 81 80 79 77 74 70 66 62 57 51 45 41 37 35 33 33
16 18 21 26 31 36 42 48 55 61 67 71 75 79 81 82 83 83 84 83 83 83 84 83 83 83 84 84 84 84 84 84 84 84 84 84 84 84 84 84 84 85 84 84 84 85 85 84 84 84 84 84 84 84 85 85 85 85 85 85 85 85 85 85 85 84 84 83 83 82 81 80 79 77 74 70 66 62 57 52 47 43 40 38 37 36
14 14 15 16 18 20 24 28 34 40 46 53 59 65 71 75 79 82 84 84 83 84 85 83 83 83 84 84 84 84 83 83 84 84 83 84 84 84 84 83 84 85 84 84 84 85 85 84 84 84 84 84 84 84 84 84 84 85 85 85 85 85 85 85 84 84 83 83 82 81 81 80 78 76 74 70 66 62 58 53 49 46 43 42 41 40
13 13 14 14 14 14 15 16 19 23 27 34 40 46 53 60 66 72 78 81 83 84 85 84 84 84 84 84 83 83 83 83 83 83 82 83 84 84 83 83 84 84 83 84 84 84 84 84 84 84 84 84 84 84 84 84 84 84 84 84 85 85 85 85 84 83 83 82 81 81 80 79 78 76 74 70 67 63 59 55 52 50 48 46 45 44
12 12 12 13 13 14 14 13 14 14 16 19 23 29 35 41 48 55 62 69 75 79 82 83 83 84 84 84 83 84 84 83 83 82 82 82 83 84 83 83 84 83 82 84 84 84 85 85 85 84 84 84 84 84 84 84 84 84 84 84 84 84 84 84 84 83 82 81 81 80 79 78 77 76 73 70 67 64 60 57 55 53 52 51 50 49
10 10 11 11 12 13 13 13 13 13 13 13 14 16 20 25 31 37 43 50 57 64 70 74 77 79 80 81 82 83 84 83 83 83 82 82 83 84 83 84 83 83 82 84 84 85 85 85 85 85 84 84 84 84 84 84 84 84 84 84 84 84 84 84 84 83 82 81 80 79 78 77 76 75 73 70 67 64 61 59 57 56 55 55 54 53
9 9 9 10 10 11 11 12 12 13 13 12 12 12 13 15 18 22 27 33 40 46 53 59 64 68 72 74 76 79 81 83 83 84 83 83 83 84 84 84 83 83 82 83 84 85 85 85 85 85 85 84 84 84 85 85 85 84 84 84 84 84 84 84 83 83 82 81 79 78 77 76 75 74 72 70 68 65 63 61 60 59 59 59 58 57
7 7 8 8 9 9 10 10 10 11 11 12 12 12 12 11 12 13 15 20 25 31 37 43 49 55 59 62 65 69 73 76 79 82 83 84 84 84 84 84 84 84 83 84 84 84 84 84 84 84 84 85 84 84 85 85 85 85 85 84 84 84 84 84 84 83 82 81 80 78 77 76 74 73 71 69 68 66 64 63 62 62 62 62 62 62
5 6 6 7 7 8 8 9 9 9 10 10 11 11 11 11 11 11 11 12 15 19 24 30 36 41 46 50 54 57 61 65 69 74 78 80 82 84 84 84 84 84 84 84 84 84 85 84 84 84 84 84 84 85 84 85 85 85 85 84 84 84 84 84 84 83 83 82 80 79 78 76 75 73 71 70 68 67 66 65 65 65 65 65 65 65
4 5 5 5 6 6 7 7 8 8 8 9 9 10 10 10 11 11 11 11 11 12 14 18 24 29 35 39 43 46 49 52 57 62 67 71 75 78 81 82 83 84 84 84 84 84 85 84 84 84 84 84 84 84 84 84 84 84 84 84 84 84 84 84 84 84 83 82 81 80 79 77 76 74 72 72 71 70 70 69 68 68 68 68 67 67
3 4 4 4 4 5 5 6 6 7 7 8 8 8 9 9 9 10 10 10 11 11 11 12 15 19 24 29 34 37 40 44 48 52 56 60 64 68 72 76 79 81 83 83 84 84 84 84 84 84 84 84 84 84 84 84 84 84 84 84 84 84 84 84 84 84 84 83 82 81 80 79 77 76 75 75 74 74 73 72 72 71 70 69 68 68
3 3 3 3 4 4 4 4 5 5 6 6 7 7 7 8 8 8 9 9 10 10 10 10 11 13 16 20 25 30 35 39 43 45 47 50 53 56 60 65 69 73 77 80 82 83 83 83 83 83 84 84 84 84 84 84 84 84 84 84 84 84 84 84 84 84 84 83 83 82 81 80 79 78 77 76 76 75 74 74 73 72 71 70 69 68
3 3 3 3 3 3 3 3 4 4 5 5 5 6 6 7 7 7 7 8 8 9 9 10 10 10 11 14 17 22 27 33 38 42 44 45 45 47 49 53 58 62 67 72 76 79 81 82 82 82 82 83 84 84 84 84 84 84 84 84 84 84 84 84 84 84 84 83 83 82 82 81 80 79 78 77 76 75 74 74 73 73 72 70 69 69
3 3 3 3 3 3 3 3 3 3 3 4 4 5 5 5 6 6 7 7 7 7 8 8 9 9 10 11 13 15 19 25 31 37 42 44 44 44 44 45 48 52 57 62 67 71 76 79 80 80 80 81 82 83 83 84 84 84 84 84 84 83 83 84 84 84 83 83 83 82 82 81 80 79 79 78 77 76 75 75 75 74 74 73 72 72
3 3 3 3 3 3 3 3 3 3 3 3 3 4 4 4 5 5 5 6 6 6 7 7 7 8 8 9 10 12 14 18 23 28 34 39 43 45 45 45 45 46 49 53 58 63 68 73 76 78 79 80 81 82 83 84 83 83 84 84 84 83 83 83 83 83 83 83 83 82 82 81 80 80 79 78 78 77 77 77 78 78 78 77 77 77
4 4 3 3 3 3 3 3 3 3 3 3 3 3 3 3 4 4 4 5 5 6 6 6 6 7 7 7 8 9 10 13 16 20 25 29 35 40 45 48 49 49 49 51 53 57 60 66 71 76 79 80 81 82 82 83 83 83 84 84 84 83 82 82 82 82 83 83 83 82 81 81 80 80 79 79 78 78 79 79 80 81 82 81 81 80
7 6 6 5 5 4 4 3 3 3 3 3 2 2 3 3 3 3 3 4 4 4 5 5 6 6 6 6 7 7 8 9 11 14 18 21 26 31 37 45 51 55 55 55 55 56 56 60 66 73 77 80 81 82 82 83 83 83 83 83 83 83 84 82 82 82 82 82 82 82 81 80 80 79 79 78 78 78 78 79 81 82 83 83 82 82
10 10 10 9 8 8 7 6 5 4 4 3 3 3 3 3 3 3 3 3 3 4 4 4 5 5 5 6 6 6 7 7 9 10 12 16 19 24 28 35 43 51 58 60 60 60 58 60 64 70 76 80 82 82 82 82 83 83 82 82 83 83 84 83 82 82 81 82 82 82 81 80 80 79 79 78 78 77 77 78 80 82 82 83 83 82
14 13 13 12 12 11 11 10 9 8 7 6 5 4 4 3 3 3 3 3 3 3 3 3 4 4 4 5 5 6 6 6 7 8 9 11 14 17 21 25 31 38 48 56 61 64 64 65 67 70 76 80 82 82 82 82 82 82 82 82 82 83 83 83 83 83 82 82 82 82 82 81 81 80 80 79 78 77 76 77 79 81 82 82 82 82
16 15 15 14 14 13 13 12 12 12 11 10 9 8 7 6 5 4 3 3 3 3 3 3 3 3 3 4 4 5 5 5 6 6 7 8 10 12 14 17 21 26 32 42 53 63 69 71 72 74 78 81 82 82 82 82 82 82 82 82 81 81 81 81 82 83 83 83 82 82 82 82 82 82 82 81 80 78 78 79 81 82 83 82 82 82
18 17 16 16 15 14 14 13 13 13 13 12 12 11 10 9 8 7 5 4 4 3 3 3 3 3 3 3 4 4 4 4 5 5 5 6 7 8 10 12 14 18 21 28 39 52 65 71 75 77 80 81 82 82 82 82 82 82 82 81 81 81 80 81 82 82 82 82 82 82 82 81 81 81 81 81 81 81 82 82 83 84 84 83 82 82
20 19 19 18 17 16 15 15 14 14 13 13 13 13 12 12 11 10 9 7 6 5 4 4 4 3 3 3 3 3 3 4 4 4 5 5 5 6 7 9 10 12 15 19 25 35 48 60 68 74 78 81 82 82 82 82 82 81 81 81 81 80 80 80 81 81 82 82 82 82 81 81 81 80 80 80 80 80 81 82 83 84 84 83 83 82
23 22 21 20 20 19 18 17 16 15 14 14 13 13 13 12 12 12 11 10 10 9 7 6 5 5 4 4 4 3 3 3 3 4 4 4 4 5 5 6 7 9 11 13 16 21 28 41 54 66 73 77 80 81 81 81 81 81 81 81 81 80 79 79 80 80 81 81 81 81 81 81 80 79 79 79 78 78 78 79 80 81 82 82 82 82
23 23 22 21 21 20 20 19 19 18 17 16 16 15 14 13 13 12 12 12 12 11 10 9 8 7 6 5 5 4 4 4 4 4 4 4 4 4 4 5 5 6 8 9 11 14 17 24 35 48 60 69 75 79 80 81 81 81 81 81 80 80 79 79 79 80 80 81 81 81 81 81 80 80 79 78 77 76 75 74 75 75 76 77 78 80
21 20 20 19 19 19 19 19 19 19 19 18 18 18 17 16 15 14 13 12 12 12 12 11 11 10 9 8 7 6 5 5 4 4 4 4 3 3 4 4 4 5 6 7 8 10 12 16 22 31 41 54 64 73 78 79 80 81 81 80 80 80 80 78 78 79 80 80 81 81 81 81 80 80 79 77 76 74 72 70 69 68 68 68 69 71
Wind_Speed
55 54 53 53 53 53 52 52 52 52 51 50 48 47 47 46 47 47 47 47 45 43 41 40 40 42 45 47 49 51 52 53 55 56 57 57 56 56 55 55 55 56 56 57 57 56 55 55 54 54 53 52 52 51 50 49 48 46 44 42 40 38 38 37 36 36 36 36 36 37 37 37 37 36 35 33 31 29 29 29 29 29 29 29 28 28
54 53 53 53 53 53 52 52 52 52 52 52 51 50 49 49 49 49 49 48 46 43 39 37 36 36 38 40 43 46 49 51 53 55 56 57 57 57 56 56 55 55 56 56 56 56 56 55 55 54 54 52 51 51 50 49 47 45 43 40 39 38 37 37 36 35 35 36 37 37 37 37 37 36 34 32 31 30 29 29 29 29 28 28 27 26
54 54 54 53 53 53 53 52 52 53 53 53 53 52 52 52 52 52 51 50 49 46 43 40 37 36 36 37 39 41 44 47 51 54 56 57 57 57 57 57 56 56 56 56 55 55 55 56 55 55 54 52 51 50 49 47 46 43 41 39 38 37 37 37 36 35 35 36 37 37 37 37 36 35 34 32 31 30 30 30 30 29 28 27 26 26
55 55 55 55 54 54 54 53 54 54 54 54 54 54 54 54 54 54 53 52 52 51 49 47 45 44 42 42 41 41 42 44 47 50 53 55 56 57 57 57 57 57 56 56 56 55 55 56 55 55 53 52 50 49 48 46 44 42 40 38 37 37 37 37 36 36 36 36 37 37 37 37 37 36 34 32 31 31 32 32 31 30 29 28 27 26
58 57 57 57 56 55 55 54 55 55 56 56 56 56 56 56 56 55 54 54 54 54 53 53 53 52 51 50 48 47 45 45 46 47 50 52 54 55 56 57 57 57 56 56 56 55 55 55 55 54 53 51 50 49 47 45 43 40 39 38 37 37 37 37 37 37 37 36 36 36 36 37 37 36 35 34 33 33 33 33 32 31 30 29 28 27
60 59 59 58 58 57 56 56 56 56 57 57 57 57 57 57 56 56 56 55 55 55 55 55 56 56 56 55 54 52 50 48 47 47 48 49 51 52 53 54 55 55 55 55 55 55 55 55 54 53 52 51 49 48 47 44 42 40 38 38 38 38 38 38 38 38 37 37 36 36 36 37 37 37 36 35 35 34 34 34 34 33 32 31 30 28
62 62 61 60 58 57 57 57 57 57 57 57 58 58 58 58 57 57 56 56 56 56 56 56 57 57 57 56 55 54 52 51 49 49 48 48 49 50 51 51 52 53 53 54 54 54 54 54 53 52 51 50 49 48 46 44 42 40 38 38 38 38 38 38 38 38 38 37 36 36 36 37 37 37 37 36 36 35 35 35 35 35 34 32 31 29
63 63 62 61 59 58 58 58 57 57 57 58 58 59 58 58 58 58 57 57 57 57 57 57 57 56 56 55 54 53 52 52 51 50 49 49 48 48 49 49 50 51 51 52 53 53 53 53 52 52 51 50 49 48 46 44 42 40 39 38 38 38 38 39 39 39 39 38 37 36 36 37 37 38 38 37 36 36 35 36 36 36 35 33 32 30
64 64 63 61 59 57 57 57 57 57 58 59 60 60 59 59 59 58 58 58 58 57 57 57 57 56 55 55 54 53 52 52 51 51 50 49 48 48 48 48 49 49 50 51 52 52 52 52 52 51 51 50 49 48 46 44 42 40 39 39 39 39 39 39 39 40 39 39 37 37 36 37 38 39 39 38 37 36 36 36 37 37 36 34 32 31
64 63 62 60 58 57 57 57 57 58 59 60 61 61 60 60 59 59 59 58 58 58 58 57 57 56 56 55 54 53 53 52 52 51 50 49 48 47 47 48 48 49 50 50 51 52 52 51 51 51 50 50 49 47 46 44 42 41 40 40 40 40 40 40 40 40 40 39 38 37 37 37 38 39 39 38 37 37 37 37 38 38 37 35 33 33
61 60 58 57 57 57 58 59 59 60 61 62 62 62 61 61 60 60 59 59 59 58 58 58 58 57 56 55 55 54 53 52 52 51 50 49 48 47 47 48 48 49 49 50 51 51 51 51 51 50 50 50 49 47 45 44 43 42 41 41 41 41 41 41 41 41 40 39 38 37 37 37 38 39 39 39 38 37 38 38 39 39 38 36 34 33
56 56 56 56 58 59 60 62 63 64 64 64 64 63 62 61 61 61 61 60 59 59 59 58 58 57 56 56 55 54 53 53 52 51 51 50 49 48 48 48 49 49 50 50 51 51 51 51 51 50 50 49 48 47 45 44 43 42 42 42 42 42 42 42 41 41 40 39 38 37 37 38 39 39 40 39 38 38 39 39 40 39 38 37 35 34
55 56 58 60 61 63 64 65 66 67 66 66 64 63 62 61 62 62 62 61 60 59 59 58 58 57 57 56 55 54 54 53 52 52 51 50 50 49 49 50 50 51 51 51 52 51 51 51 51 50 50 49 48 47 46 45 44 44 43 43 43 43 43 42 42 41 40 39 38 37 38 38 39 40 40 40 39 39 39 40 40 40 39 37 35 34
59 60 61 63 64 66 67 68 68 68 68 66 65 63 61 61 61 62 62 62 60 59 58 58 57 57 56 55 55 54 54 53 53 52 52 51 51 51 51 51 52 52 52 53 53 52 52 52 51 50 49 48 48 47 46 45 45 45 45 44 44 44 43 43 42 42 40 39 38 38 38 39 40 41 41 40 40 40 40 40 40 39 38 36 34 33
63 64 64 65 66 67 68 68 68 68 67 66 65 63 61 60 60 61 61 61 60 59 57 57 56 56 55 55 54 54 54 54 54 54 53 53 52 52 53 53 53 53 53 53 53 53 52 52 51 50 49 48 48 47 47 46 46 46 46 46 45 45 44 43 43 42 40 39 38 38 39 40 41 41 41 41 40 40 40 40 39 38 37 35 33 32
67 67 67 67 67 66 66 66 65 65 66 66 65 64 61 60 60 60 60 60 59 58 56 55 55 55 54 54 54 54 54 54 55 55 55 55 55 55 55 55 55 55 54 54 53 53 52 52 51 50 49 48 48 48 47 47 47 47 47 47 46 45 45 44 43 42 40 39 39 39 40 41 42 41 41 41 40 40 39 39 38 37 36 34 33 32
66 65 64 63 62 63 64 64 64 64 65 66 66 65 63 62 61 60 60 59 59 57 56 55 55 54 54 54 54 54 55 56 57 57 57 57 57 57 57 57 56 56 55 54 53 53 52 51 51 50 49 49 49 49 48 48 48 48 48 47 47 46 45 44 43 42 41 40 40 40 41 42 42 41 41 40 39 39 38 37 37 36 34 33 32 32
60 58 58 59 61 64 66 65 64 64 65 66 66 65 65 64 63 61 61 60 59 58 57 56 56 55 55 54 54 55 55 57 58 59 59 59 59 59 59 58 57 56 55 54 53 53 52 51 51 50 50 50 50 50 49 49 49 49 49 48 47 46 45 44 43 42 41 41 41 42 42 42 42 41 40 39 38 37 37 36 35 35 34 33 33 33
56 56 57 60 62 64 65 64 63 62 63 63 63 63 63 64 64 63 62 61 60 60 59 58 57 57 56 56 56 56 56 57 58 59 59 59 59 59 59 58 57 56 55 54 53 53 52 52 51 51 51 51 51 50 50 50 50 50 49 48 47 46 45 44 43 42 42 42 42 42 43 42 41 40 39 38 37 36 36 35 35 34 34 33 33 33
56 57 59 61 63 63 62 62 61 60 60 59 59 60 61 64 65 65 65 64 63 62 61 60 60 59 58 58 57 57 57 58 58 58 58 58 57 57 57 57 56 55 54 53 53 53 52 52 52 52 51 51 51 51 51 50 50 49 49 48 46 45 45 44 43 43 43 43 43 43 43 42 41 39 38 37 36 35 35 35 34 34 34 34 34 34
60 60 61 63 64 64 62 61 61 61 60 59 59 60 62 65 66 67 67 66 65 64 63 62 62 61 60 59 58 58 57 57 56 56 56 56 55 55 55 55 54 53 52 52 52 52 52 52 52 52 51 51 51 51 50 50 50 49 48 47 46 45 44 44 44 44 43 43 44 43 43 42 40 39 37 36 35 35 35 35 35 35 35 35 35 35
66 65 65 66 67 68 67 65 64 64 64 63 63 64 66 67 68 69 69 67 65 64 63 63 62 62 61 60 59 58 57 56 55 54 54 53 53 53 53 53 52 51 51 50 51 51 51 51 52 52 51 51 50 50 50 50 49 49 48 46 45 45 44 44 44 44 44 44 44 44 43 41 40 38 37 36 35 35 35 35 36 36 36 36 36 35
69 69 70 70 71 72 72 71 70 70 70 69 70 70 71 71 71 71 70 67 65 64 63 62 62 62 61 61 60 59 58 56 55 54 53 53 52 52 52 51 51 51 50 50 50 50 50 51 51 51 51 51 50 50 50 50 49 49 47 46 45 44 44 44 45 45 45 45 44 44 43 41 40 38 37 36 36 36 36 36 36 36 36 36 36 36
69 70 70 71 72 72 73 74 74 75 75 75 76 76 76 75 75 74 72 68 65 63 63 62 62 62 62 61 60 59 58 56 55 54 54 54 54 53 52 51 51 50 50 50 50 51 51 52 52 52 51 51 51 50 50 51 50 49 48 46 45 45 45 45 45 45 45 45 45 44 43 42 40 39 38 37 37 37 37 37 37 37 37 36 36 35
69 70 70 71 71 71 72 72 73 74 74 75 76 78 78 78 77 75 73 68 65 63 62 62 62 62 62 62 60 60 59 58 56 56 56 57 57 56 54 52 52 51 51 52 52 52 52 52 52 52 52 52 52 52 52 52 52 51 49 48 46 46 46 46 46 46 46 46 45 45 43 42 41 40 39 38 38 38 38 37 37 37 37 36 36 35
70 70 71 71 71 71 71 71 71 71 71 71 72 73 75 75 75 73 69 65 62 61 60 60 61 62 62 61 61 60 60 59 58 57 58 59 59 59 57 55 54 53 53 53 53 53 53 53 53 52 52 52 53 53 53 54 53 52 51 49 48 47 47 47 47 48 48 47 46 45 44 43 42 40 39 39 38 38 38 37 37 37 36 36 35 35
71 71 72 72 72 72 72 72 72 71 70 70 69 69 70 70 69 68 65 62 61 59 59 59 60 61 60 60 60 61 61 60 59 59 59 60 61 61 60 59 57 56 55 55 55 55 55 54 54 53 53 53 53 54 54 55 54 54 52 51 49 49 48 48 49 49 49 48 47 46 45 44 42 41 40 39 39 38 38 37 37 36 36 35 35 35
73 73 74 74 74 74 73 73 73 72 72 71 70 69 68 67 67 65 64 63 62 60 59 60 60 60 59 59 60 60 60 60 60 60 60 60 61 61 61 60 59 59 58 57 57 56 56 56 55 54 53 53 53 54 54 55 55 54 53 52 51 50 50 50 50 50 50 49 48 47 46 44 43 42 40 40 39 39 38 37 37 36 35 35 35 35
77 77 76 76 76 76 75 75 74 74 73 73 72 71 70 69 68 68 67 66 64 63 62 62 62 61 60 60 60 60 60 60 60 61 60 60 61 61 61 60 60 60 60 59 59 58 58 57 56 55 54 53 53 53 54 54 54 54 53 53 52 52 51 51 52 51 51 50 49 48 47 45 43 42 41 40 39 39 38 37 37 36 36 36 35 35
80 80 80 79 79 79 78 77 77 76 75 75 74 73 72 72 71 71 70 69 68 67 66 65 64 63 63 62 61 60 60 60 60 60 60 60 60 60 59 59 59 60 60 60 60 59 59 59 58 57 56 54 53 53 53 53 54 53 53 53 52 52 52 52 52 52 52 51 50 48 47 45 43 42 41 40 40 39 38 38 37 37 36 36 36 35
84 83 83 83 82 82 81 80 80 79 78 77 76 75 74 74 73 72 72 71 71 70 70 69 68 67 66 64 63 63 62 62 61 61 60 60 60 60 58 58 58 58 58 58 59 59 59 59 58 58 57 56 55 54 53 53 53 53 53 52 52 52 52 52 52 52 51 50 49 48 46 45 43 42 41 41 40 40 39 38 38 37 37 36 36 35
86 86 86 86 85 84 84 83 83 82 81 80 79 78 77 76 75 74 73 73 72 72 72 71 70 70 69 68 67 66 65 64 63 62 62 62 62 61 59 58 57 57 57 57 58 58 59 58 58 58 57 56 56 55 54 53 53 53 52 52 52 51 51 51 51 50 50 49 48 47 46 44 43 42 42 41 41 40 40 39 38 38 37 36 36 35
89 89 88 88 88 87 87 86 86 85 84 83 82 81 80 79 77 76 75 75 74 73 73 72 72 72 71 70 70 69 68 67 66 65 65 64 64 62 61 59 58 57 57 57 57 58 58 58 57 57 57 56 56 55 54 54 53 53 52 52 51 51 50 50 49 49 49 48 47 46 45 44 43 43 42 42 41 41 40 40 39 38 37 37 36 35
90 90 90 90 90 90 89 89 88 88 87 86 85 84 83 82 80 79 78 77 76 75 74 74 73 73 72 72 71 71 70 70 69 69 68 67 66 65 63 62 60 59 58 57 57 57 57 57 57 56 56 56 56 55 54 54 53 52 52 51 51 50 50 49 49 48 48 47 47 46 45 44 44 43 43 42 42 42 41 40 39 38 38 37 37 36
90 91 91 91 92 92 91 91 91 90 89 89 88 87 86 85 84 82 81 80 79 77 76 76 75 74 73 73 72 72 71 71 71 71 70 70 69 68 67 65 63 62 60 59 58 58 57 57 57 56 56 55 55 54 54 53 52 52 51 51 50 50 49 49 48 48 47 47 46 46 45 45 44 44 43 43 43 42 42 41 40 39 39 38 38 37
89 90 91 91 92 92 93 93 92 92 92 91 90 90 89 88 87 86 85 83 82 81 79 78 77 76 75 74 74 73 73 73 72 72 72 72 71 71 69 68 67 65 63 62 61 59 58 58 57 56 56 55 54 53 53 52 51 51 50 50 50 49 49 48 48 48 47 47 47 46 46 45 45 44 44 44 43 43 42 42 41 40 40 40 39 39
88 88 89 90 91 92 92 93 93 93 93 93 93 92 91 91 90 89 88 87 85 84 82 81 80 79 77 77 76 75 74 74 74 74 74 74 73 72 71 71 69 68 66 65 63 62 61 60 59 58 57 55 54 53 52 51 50 50 50 49 49 48 48 48 48 47 47 47 47 47 46 46 46 45 45 45 44 44 43 43 42 42 42 41 41 40
85 86 87 88 88 89 91 92 93 94 94 94 94 94 93 93 92 92 91 90 88 87 86 84 83 81 80 79 78 77 76 76 75 75 76 75 74 74 73 72 71 70 69 67 66 64 63 62 61 60 59 57 55 54 52 51 50 49 49 49 48 47 47 47 47 47 47 47 47 47 47 47 46 46 46 46 45 45 45 44 44 43 43 43 42 42
81 82 83 84 85 86 87 89 91 92 93 94 94 95 95 95 94 94 93 92 91 90 89 88 86 85 83 82 81 80 78 78 77 77 77 77 76 76 75 74 73 72 70 69 68 66 65 64 63 62 60 59 57 55 54 52 51 50 49 48 48 48 47 47 47 47 47 47 47 47 47 47 47 47 47 47 46 46 46 45 45 44 44 43 43 43
76 77 79 80 82 83 84 85 87 89 90 92 93 94 95 95 95 95 95 95 94 93 92 90 89 88 86 85 84 82 81 81 80 79 79 78 78 78 77 76 75 73 72 71 69 68 66 65 64 63 61 60 59 57 55 54 52 51 50 49 49 49 48 48 47 48 48 48 48 48 48 48 48 48 48 47 47 47 46 46 45 45 44 44 44 43
69 71 74 76 78 79 80 82 83 85 86 88 90 92 93 94 95 96 96 96 95 95 94 93 92 90 89 88 86 85 84 84 83 82 82 81 80 79 79 78 77 76 74 73 72 70 68 66 64 63 62 61 60 58 56 55 53 52 51 50 50 50 49 48 48 48 48 49 49 49 48 48 48 48 48 48 48 47 47 46 46 46 45 45 45 44
62 65 67 70 72 73 75 77 79 80 82 84 86 88 91 92 94 95 96 96 96 96 96 95 94 93 91 90 89 88 87 86 86 85 84 83 83 81 81 80 79 78 77 76 74 72 70 68 66 64 63 62 60 59 57 56 54 53 52 51 51 50 50 50 50 50 50 50 50 50 49 49 49 49 49 48 48 48 48 47 47 47 46 46 46 45
54 57 60 62 64 66 69 71 73 75 77 80 82 84 87 89 91 92 94 95 96 96 97 96 96 95 94 93 92 91 90 89 88 88 87 86 85 84 83 82 81 80 79 78 77 75 73 71 68 66 65 63 62 60 59 57 55 54 53 52 52 52 52 52 52 51 51 51 51 51 51 51 50 49 49 49 49 49 49 48 48 48 48 48 48 47
47 49 51 53 56 58 61 63 66 69 71 74 76 79 82 84 86 88 90 92 94 95 96 97 97 96 95 95 94 93 92 91 91 90 89 89 88 87 86 85 84 83 82 80 79 78 76 74 71 69 67 65 64 62 61 59 57 55 54 54 54 54 55 54 53 53 53 53 53 53 53 52 51 50 50 49 49 49 49 49 49 49 49 50 50 50
40 42 43 46 48 50 52 55 58 61 64 66 69 73 76 78 81 83 85 88 90 92 94 95 96 96 96 96 96 95 94 94 93 92 92 91 91 90 89 88 87 86 84 83 82 80 78 76 74 72 70 68 66 65 63 61 59 57 56 56 56 56 56 56 55 55 55 55 55 55 54 53 52 51 51 50 50 49 49 49 49 50 50 51 51 51
35 36 38 40 42 43 46 49 51 53 55 58 62 65 68 71 74 77 80 83 85 88 90 92 93 95 96 97 97 96 96 95 95 95 94 94 93 92 92 91 90 89 87 86 84 82 80 79 77 75 73 71 69 67 65 63 61 59 58 58 59 59 59 59 58 58 58 57 57 57 56 55 54 53 52 51 50 50 49 50 50 51 52 52 52 52
33 34 35 36 37 39 41 43 45 47 49 52 55 58 61 63 66 69 73 76 79 82 85 87 89 91 93 95 96 96 96 96 96 96 96 95 95 94 94 93 92 91 90 89 87 86 84 82 80 78 76 74 72 70 68 65 63 61 60 60 61 61 61 61 61 60 60 59 59 59 58 57 56 55 54 53 52 51 51 51 52 53 53 53 53 52
32 33 34 35 36 37 38 40 41 42 44 47 49 52 54 56 59 62 65 69 72 75 78 81 84 86 89 92 93 94 95 96 97 97 97 97 97 96 96 95 95 94 93 92 91 89 88 86 83 81 79 77 75 73 70 68 66 64 63 62 62 63 63 63 63 62 62 62 61 61 60 60 59 57 56 54 54 53 53 53 53 54 54 54 53 52
33 34 34 35 35 36 37 38 39 40 42 43 45 47 49 51 53 56 59 62 65 68 71 74 77 81 84 86 89 90 92 94 95 96 97 97 98 98 98 97 97 96 95 95 94 92 91 89 88 86 83 81 78 76 73 71 69 67 65 64 64 64 64 64 64 64 64 64 64 63 63 62 61 60 58 57 56 55 54 54 54 54 54 54 53 52
34 35 35 35 36 37 37 38 39 39 40 42 43 44 46 47 49 51 54 56 58 61 64 67 71 74 77 80 83 85 87 89 91 93 94 96 97 98 98 98 98 98 98 97 96 95 94 93 91 90 88 85 83 79 77 74 72 70 68 67 66 66 65 65 65 66 66 66 65 65 65 65 64 63 61 59 57 56 55 54 53 53 53 53 53 52
34 35 35 36 37 37 38 38 39 40 40 41 42 43 44 45 46 48 50 52 54 56 59 62 64 67 70 74 77 79 82 84 86 88 91 93 95 96 97 98 99 99 99 99 98 97 96 96 95 93 92 90 88 85 82 78 75 73 72 70 69 67 66 66 66 67 67 67 67 67 67 67 67 65 63 61 59 57 55 54 53 52 52 52 53 53
Wind_Direction
264 264 265 266 266 266 266 265 264 264 265 266 267 269 270 272 273 274 275 277 278 279 279 277 275 273 272 270 267 264 261 258 257 257 258 259 261 263 264 265 265 264 263 263 263 265 266 267 268 268 269 269 269 269 269 269 271 272 273 271 269 266 265 265 265 265 266 267 267 268 268 268 267 265 263 261 260 259 259 259 260 260 261 260 258 257
263 263 264 265 266 267 267 267 267 266 266 266 267 268 269 270 271 272 273 274 275 277 277 277 277 277 277 276 273 269 266 262 260 258 258 259 261 262 264 264 265 264 264 263 264 264 265 266 267 267 268 268 268 268 268 269 270 272 271 269 266 264 263 263 264 264 264 265 266 267 268 268 266 264 262 260 258 258 257 257 258 259 259 259 257 257
263 263 264 264 265 266 267 268 268 268 267 267 267 267 268 269 270 271 272 272 272 273 274 275 277 279 281 281 280 277 273 269 265 262 261 261 261 262 263 264 264 264 264 264 264 264 265 265 266 266 267 267 267 267 267 269 270 271 269 266 264 262 262 262 262 262 261 260 261 263 265 265 264 263 261 259 257 257 256 255 255 256 256 256 255 256
263 264 264 264 264 265 266 267 267 268 267 267 267 267 267 268 269 270 270 271 271 271 272 273 274 276 278 280 282 282 280 276 272 268 265 263 262 262 263 263 264 264 264 264 264 264 264 265 265 265 266 266 266 266 267 269 269 269 266 264 262 261 261 261 261 261 260 258 258 258 259 260 260 259 258 257 256 256 255 254 253 253 253 252 252 254
265 264 264 264 264 264 264 264 265 266 266 266 266 266 266 267 268 269 270 270 270 271 271 271 272 274 276 277 279 280 280 279 276 273 269 267 265 264 263 263 263 264 264 264 264 264 264 264 264 264 264 264 265 265 267 268 268 266 263 261 260 259 260 260 261 261 260 259 258 257 256 255 255 254 254 253 253 254 254 253 252 251 250 250 250 252
266 265 264 264 263 263 263 263 262 263 264 264 264 265 265 266 267 268 268 269 270 270 271 271 272 273 275 276 277 278 278 277 276 274 271 269 268 266 265 264 263 263 263 263 263 263 263 263 263 263 263 263 264 264 266 266 265 263 261 259 258 258 259 260 260 260 260 260 258 256 253 251 250 249 249 249 249 250 251 252 251 251 250 250 251 252
267 266 265 265 264 263 262 262 261 261 262 262 263 263 264 264 265 266 267 268 268 269 270 271 271 273 274 275 276 277 277 276 274 273 271 270 269 268 266 265 263 262 262 262 262 262 262 262 262 262 262 262 263 264 264 264 262 260 258 257 257 258 259 260 260 260 260 259 257 254 250 247 245 244 244 244 245 247 248 249 250 250 250 251 252 254
266 266 266 265 264 263 262 261 261 261 261 262 262 262 263 263 264 264 265 266 266 267 268 269 270 271 272 273 274 275 274 274 272 271 270 269 268 268 267 265 264 262 261 261 261 261 261 261 261 261 261 261 262 262 262 261 259 257 256 256 256 257 258 259 260 260 260 259 257 253 249 245 242 241 240 241 242 244 246 247 248 250 251 252 253 254
265 266 266 265 264 263 262 262 261 261 261 261 262 262 262 263 263 263 263 264 265 266 266 267 268 269 270 271 271 272 272 271 270 269 268 267 267 266 265 264 263 261 260 259 259 259 259 259 259 260 260 261 261 261 260 258 256 255 255 255 256 257 258 259 260 260 260 259 256 252 248 243 240 238 237 238 239 241 243 245 247 249 251 252 253 253
265 266 266 266 265 264 263 262 262 261 261 261 261 262 262 262 262 263 263 263 263 264 265 265 266 267 267 268 268 269 269 269 268 267 266 266 265 264 264 262 261 260 259 258 257 258 258 258 258 259 259 260 260 259 257 255 254 254 255 256 257 258 259 259 260 260 260 258 256 251 246 242 239 237 236 236 237 238 240 243 245 248 250 251 252 252
265 265 265 265 264 263 262 262 261 261 261 261 262 262 262 262 262 262 262 262 262 263 263 264 264 265 265 266 266 267 267 267 266 266 265 264 264 263 262 261 260 258 257 256 256 256 257 257 257 258 258 259 258 257 255 253 253 253 255 256 257 258 259 260 260 260 259 258 254 250 245 240 237 236 236 236 236 236 238 241 244 247 249 251 251 252
263 262 261 260 259 259 259 260 261 262 262 261 262 262 262 262 262 262 262 261 261 262 262 262 262 263 263 264 264 265 265 265 265 265 264 263 263 262 261 260 259 258 257 256 256 256 256 256 257 257 257 257 255 254 252 251 252 253 255 257 258 259 259 260 260 260 259 256 252 247 242 238 236 235 235 236 236 236 237 240 243 246 249 251 252 252
258 256 254 254 254 256 257 259 260 261 262 261 261 261 262 263 263 262 262 261 261 261 261 261 261 261 262 262 263 263 264 264 264 264 263 263 262 261 261 260 259 259 258 257 257 256 256 256 257 256 256 254 253 251 250 250 251 253 255 257 258 259 260 260 260 259 258 255 250 245 240 237 235 234 234 235 236 237 238 240 243 247 250 251 252 251
253 252 251 251 253 256 259 260 261 261 261 261 260 261 262 263 264 263 262 261 260 260 260 260 260 260 261 261 261 262 262 263 263 263 263 262 262 261 261 260 260 259 259 258 258 257 257 257 256 255 254 252 251 249 249 250 252 254 256 257 259 259 260 260 259 258 256 252 247 242 238 235 234 233 233 234 235 237 239 241 244 247 250 251 251 250
252 253 253 255 257 260 262 262 262 261 261 261 261 261 263 264 264 263 262 261 260 260 259 260 260 260 260 261 261 261 262 262 262 262 262 262 262 261 261 260 260 260 259 259 258 258 257 256 255 254 253 251 249 249 249 250 252 254 256 258 259 259 260 259 258 257 254 249 244 240 236 234 233 233 234 235 236 238 240 243 246 248 250 250 250 249
255 256 257 259 262 263 264 263 262 261 261 261 262 262 264 265 265 264 262 261 260 260 260 260 260 261 261 261 261 262 262 262 262 262 262 262 262 261 261 260 260 260 259 259 258 258 257 255 254 253 252 250 249 249 250 251 253 255 257 258 259 259 259 258 257 255 251 246 241 237 235 233 233 233 234 236 237 239 242 244 246 248 249 249 248 248
258 259 261 263 264 264 263 261 259 256 256 258 261 263 265 266 266 265 263 261 261 261 261 261 261 262 262 262 262 262 262 263 262 262 262 262 261 261 261 260 260 259 259 258 258 257 256 255 254 253 252 251 250 251 251 253 254 255 257 257 258 258 258 257 255 252 248 243 239 236 234 233 233 234 235 237 239 241 243 244 246 247 248 248 247 247
259 260 261 262 263 262 261 258 254 251 250 253 258 262 265 266 267 266 265 263 263 263 263 262 262 262 262 263 263 262 262 262 261 261 261 260 260 260 260 260 259 259 258 258 257 256 256 255 254 253 252 252 252 252 252 253 254 255 256 257 257 257 256 255 253 249 245 241 237 235 233 233 234 235 236 238 240 241 243 244 245 246 246 246 246 246
257 257 257 258 259 260 259 256 252 248 247 250 255 260 264 266 267 266 265 264 264 264 264 264 263 263 263 263 262 262 261 261 260 259 258 258 258 259 259 259 258 258 257 257 256 256 255 255 254 253 253 252 252 252 253 254 254 255 256 256 256 255 254 253 250 247 243 239 236 234 234 234 234 236 237 238 240 241 242 243 244 245 245 245 244 244
256 253 252 253 255 257 258 256 252 249 249 252 255 259 262 264 265 265 265 264 264 263 263 263 263 263 262 262 262 261 261 260 258 257 255 254 255 256 256 257 257 257 257 257 257 256 256 255 254 253 253 253 252 253 253 253 254 254 255 255 254 253 252 250 248 245 241 238 236 235 234 235 235 237 238 239 240 241 241 242 243 243 244 244 244 244
256 253 252 251 252 254 256 256 254 253 253 255 256 258 260 261 262 263 263 262 262 261 261 260 260 261 261 261 260 260 259 258 256 255 253 252 251 252 253 253 254 255 255 256 256 256 256 255 254 254 253 253 253 252 252 253 253 253 253 253 252 251 250 248 245 243 240 238 237 236 236 236 237 237 238 239 239 240 240 241 242 242 242 243 243 243
253 252 251 250 250 251 253 254 254 254 254 255 255 256 257 258 260 260 261 260 259 259 258 257 258 258 259 259 258 257 257 255 254 252 250 248 248 248 249 250 250 251 252 252 253 253 253 253 253 253 253 253 253 252 252 252 252 252 251 251 251 250 248 246 244 242 240 238 238 237 237 238 238 238 239 239 239 239 239 239 240 240 241 242 242 243
250 250 249 249 248 248 249 250 252 252 253 253 253 253 254 256 257 258 259 259 258 257 256 255 255 256 257 256 256 255 254 253 251 249 247 245 245 245 246 246 247 247 247 247 247 248 248 249 250 251 252 253 252 252 251 250 250 250 250 250 249 248 247 245 243 241 240 239 239 239 239 239 239 239 239 239 238 238 238 238 238 239 240 240 241 242
251 251 250 249 248 247 247 248 249 250 250 251 251 252 252 253 254 255 256 256 256 255 254 254 253 254 254 254 254 253 252 251 249 247 245 244 243 243 243 243 243 243 242 242 242 242 243 244 246 248 249 250 250 249 249 248 248 248 248 248 248 247 246 244 243 241 240 240 240 240 240 240 240 240 239 239 238 238 237 237 237 238 239 240 241 242
255 254 253 252 251 250 249 249 249 249 250 250 250 250 251 251 252 252 253 253 253 252 252 252 251 251 251 252 251 251 250 249 248 246 245 243 242 241 241 240 240 239 239 239 238 239 239 241 242 243 244 245 245 245 246 246 246 247 247 247 247 246 245 244 243 242 241 241 241 241 241 241 241 240 239 239 238 237 237 237 237 238 238 239 240 241
258 258 257 256 256 255 253 253 252 251 251 250 250 249 249 249 249 249 249 248 248 248 249 249 249 249 249 249 249 248 248 247 246 245 244 243 242 241 240 239 238 238 237 237 236 236 237 238 238 239 239 240 240 241 242 244 245 246 246 247 246 246 245 244 243 242 241 241 241 241 241 241 241 240 239 239 238 237 237 237 237 237 238 239 240 241
259 259 259 258 258 258 257 257 256 255 254 253 252 251 249 249 248 247 245 244 244 245 246 246 246 246 246 246 246 246 246 246 245 245 244 244 243 242 241 240 238 237 237 236 236 236 236 236 236 236 236 236 236 237 239 241 243 245 246 246 245 245 244 243 242 242 241 241 242 242 242 241 241 240 239 238 238 237 237 236 236 237 238 239 240 241
258 258 258 258 258 258 258 258 258 258 257 256 255 254 252 251 249 247 245 244 243 244 244 244 245 244 244 244 244 244 245 245 245 245 244 244 244 243 242 241 240 238 237 237 236 236 235 235 235 235 235 234 233 234 235 238 240 242 243 244 244 243 242 242 241 241 241 241 242 242 242 241 241 240 239 238 237 236 236 235 236 236 237 238 239 241
258 257 257 257 257 258 258 258 258 258 258 257 257 256 255 254 252 251 249 247 246 245 244 244 243 243 243 243 243 243 243 244 244 244 244 244 244 244 243 242 241 240 238 237 237 236 235 235 235 235 235 234 233 232 232 234 236 238 239 240 240 240 240 240 240 240 241 241 241 242 242 241 240 239 238 236 236 235 235 234 235 235 236 237 239 241
257 257 257 257 257 257 257 256 256 256 256 257 257 257 256 255 254 253 252 251 249 248 247 246 245 244 243 243 242 242 242 243 243 243 244 245 245 244 243 243 242 241 239 238 237 236 236 235 235 235 235 235 234 233 232 232 233 234 235 236 236 237 237 238 238 239 240 240 241 241 241 240 239 238 236 235 234 234 234 234 234 235 236 237 239 241
256 255 255 255 256 256 256 256 256 255 255 255 255 255 255 255 255 254 254 253 252 251 250 249 248 246 245 244 243 243 242 242 242 242 243 244 244 244 243 243 242 241 240 239 238 237 236 235 235 235 235 235 235 234 233 232 232 232 233 233 234 235 235 236 237 238 239 239 240 240 240 239 238 236 235 234 233 233 233 233 233 234 236 237 239 241
254 254 254 254 254 254 255 255 255 255 254 254 254 254 254 254 254 254 254 254 254 253 253 252 251 249 248 246 245 244 243 243 242 242 243 243 244 243 243 243 242 242 241 240 239 238 238 237 236 236 236 236 236 236 235 234 233 233 233 233 233 234 235 235 236 237 238 238 239 239 239 238 236 235 234 233 232 232 232 232 233 234 236 237 239 240
253 253 253 253 253 253 253 253 254 254 254 254 253 253 253 253 253 253 253 253 253 253 253 253 253 252 251 249 248 246 245 244 244 243 243 243 244 243 243 242 242 242 242 241 240 240 239 239 238 238 238 238 238 238 238 237 236 235 235 234 235 235 235 235 236 236 237 237 238 238 237 236 235 233 232 232 231 231 231 232 232 233 235 236 237 238
252 252 251 251 251 251 251 252 252 252 252 253 253 253 252 252 252 251 251 251 251 251 252 252 252 252 252 252 250 249 247 246 246 245 245 245 244 244 243 243 243 243 243 242 242 241 241 240 240 240 241 241 241 241 241 240 239 239 238 237 237 237 237 236 236 236 236 237 237 236 236 235 234 232 231 231 230 230 230 231 232 232 233 234 235 236
252 251 251 250 250 250 250 250 250 251 251 251 251 251 251 251 251 251 250 250 249 249 249 250 250 251 251 252 252 251 250 248 248 247 247 246 246 245 245 244 244 243 244 243 243 243 242 242 242 242 242 243 243 243 243 243 243 242 241 241 240 239 239 238 237 236 236 236 235 235 234 233 232 231 230 230 230 230 230 230 231 231 232 232 233 234
253 252 251 250 249 249 249 249 249 249 249 250 250 250 250 250 250 250 250 249 249 248 248 248 248 248 249 249 250 251 251 250 250 249 248 248 247 247 246 245 245 245 245 245 244 244 244 243 243 243 243 244 244 245 245 245 245 244 244 243 242 241 240 239 238 237 236 235 234 233 233 232 231 230 229 229 229 229 229 229 229 230 230 231 231 232
254 253 252 251 250 249 248 248 248 248 248 248 249 249 249 249 249 249 249 249 248 248 247 247 246 246 246 247 248 248 249 250 250 250 250 249 248 248 247 247 246 246 246 246 246 245 245 245 244 244 244 244 244 245 245 245 245 245 244 244 243 242 241 240 239 237 235 234 233 232 231 231 230 229 228 228 227 228 228 228 229 229 229 230 231 231
256 255 253 252 251 250 249 248 248 247 247 247 247 248 248 248 248 248 248 248 248 247 247 246 246 245 245 245 245 246 247 248 249 250 250 250 250 249 248 248 247 247 246 246 246 246 246 246 245 245 245 244 244 244 244 244 244 244 244 243 243 242 241 240 239 237 236 234 233 232 231 230 229 228 228 227 227 227 228 228 228 229 229 230 230 231
256 256 255 254 252 251 250 248 248 247 247 247 246 247 247 247 247 247 247 247 247 247 246 246 245 244 244 243 243 244 244 244 245 247 248 249 249 249 249 248 248 247 247 247 247 246 246 246 246 246 245 245 245 244 244 244 243 243 243 243 242 242 241 240 239 238 236 234 233 231 230 229 229 228 228 227 228 228 228 229 229 230 230 231 231 232
256 255 255 254 253 252 251 250 249 248 247 246 246 246 246 246 246 246 246 246 246 246 246 245 245 244 244 243 242 242 242 242 242 243 244 246 247 248 249 249 248 248 247 247 247 246 246 246 246 246 246 246 245 245 244 243 242 242 242 242 241 241 241 240 239 238 237 235 233 232 231 230 229 228 228 228 228 229 229 230 230 230 231 231 232 233
255 255 254 254 253 252 251 250 249 248 247 246 246 245 245 245 245 245 245 245 245 245 245 245 244 244 243 243 242 241 241 241 240 241 241 242 243 245 246 247 248 248 247 247 247 246 246 245 245 245 245 245 245 245 244 243 242 241 241 241 240 240 240 240 239 238 237 236 234 233 231 230 230 229 229 229 229 229 229 229 230 230 231 231 232 233
255 254 253 253 252 252 251 251 250 249 248 247 246 245 245 245 244 244 245 245 245 245 244 244 244 243 243 242 242 241 240 240 239 239 240 240 241 242 243 244 245 246 246 246 246 246 245 245 244 244 244 244 244 244 243 243 242 241 240 240 239 239 239 239 238 238 237 236 234 233 232 231 230 229 229 229 229 229 228 229 229 230 230 231 232 233
254 253 253 252 252 251 251 250 250 249 248 247 247 246 245 245 244 244 244 244 244 244 244 244 243 243 243 242 241 241 240 239 239 239 239 239 239 239 240 240 242 243 244 245 245 245 244 244 243 242 242 242 242 242 242 242 241 240 239 239 238 237 237 237 237 237 236 235 234 233 232 231 230 230 229 229 229 228 228 228 228 228 229 231 232 233
256 254 253 252 252 251 250 250 250 249 248 248 247 246 246 245 244 244 243 243 243 243 243 243 243 243 242 242 241 241 240 239 239 238 238 238 238 238 238 238 238 239 240 242 243 243 243 243 242 241 241 240 240 240 240 240 239 239 238 238 237 236 236 236 236 236 235 235 233 232 232 231 230 230 229 229 228 228 228 227 227 228 229 230 231 232
259 257 256 254 253 252 251 250 250 249 249 248 247 247 246 245 245 244 243 243 243 243 243 242 242 242 242 242 241 241 240 239 239 238 237 237 237 237 237 237 237 237 237 238 239 241 241 241 241 240 239 239 238 238 238 238 237 237 237 237 236 236 235 235 235 234 234 233 232 231 231 230 229 229 228 228 228 228 228 227 227 228 229 230 231 233
263 262 260 258 256 255 253 252 251 250 249 249 248 247 247 246 245 244 244 243 243 243 242 242 242 242 241 241 241 241 240 239 239 238 237 237 236 236 236 236 236 236 236 236 236 237 238 239 239 239 238 237 236 236 236 235 235 235 235 235 235 235 235 234 233 233 232 231 231 230 229 229 228 227 227 227 227 228 228 228 228 229 230 231 232 233
267 266 264 263 261 259 257 255 254 253 252 250 249 248 248 247 246 245 244 244 243 243 242 242 242 241 241 241 240 240 240 239 239 238 238 237 236 236 236 235 235 235 235 235 234 234 235 235 236 236 236 235 235 234 234 233 233 233 233 234 234 234 233 233 232 231 230 229 229 228 228 227 226 226 226 226 226 227 227 228 228 229 230 231 232 233
270 269 268 267 265 264 262 260 259 257 255 253 252 251 250 249 247 246 245 244 244 243 243 242 242 241 241 240 240 240 240 239 239 239 238 237 237 236 236 235 235 235 234 234 233 233 232 232 232 233 233 233 233 232 232 231 231 231 232 232 232 232 232 231 231 230 229 228 227 226 226 225 225 224 224 225 225 226 227 227 229 230 231 232 233 233
273 272 271 270 268 267 265 264 263 261 259 257 256 255 253 251 250 248 247 246 245 244 243 243 242 241 241 240 240 240 239 239 239 238 238 238 237 236 236 235 235 234 234 233 233 233 232 231 230 230 231 231 231 230 230 229 229 230 230 231 231 230 230 230 229 229 228 227 226 225 224 224 224 224 223 223 224 225 226 227 228 230 231 233 234 234
276 275 273 272 271 269 268 266 265 264 262 261 259 258 257 255 253 251 249 248 247 245 244 243 242 242 241 241 240 240 239 239 239 238 238 238 237 237 236 235 235 234 233 233 233 232 232 231 230 229 229 229 228 228 228 228 228 228 229 229 230 229 228 228 227 227 227 226 225 224 223 223 223 223 223 223 223 224 225 226 228 230 231 233 234 236
278 277 276 274 273 271 270 268 267 266 264 263 261 260 259 258 257 255 253 251 249 247 246 244 243 242 242 241 241 240 240 239 239 238 238 238 237 237 236 236 235 234 233 233 232 232 231 231 230 229 228 228 227 227 226 226 226 226 227 228 229 228 228 226 226 226 226 226 225 224 223 223 222 222 222 222 223 223 224 226 227 229 232 233 235 237